Regional Weather Roundup
Issued by NWS

Home | Current Version | Previous Version | Graphics & Text | Print | Product List | Glossary On
Versions: 1 2 3 4 5 6 7 8 9 10 11 12 13 14 15 16 17 18 19 20 21 22 23 24 25 26 27 28 29 30 31 32 33 34 35 36 37 38 39 40 41 42 43 44 45 46 47 48 49 50
414
ASUS43 KLOT 292108
RWRIL

ILLINOIS REGIONAL WEATHER ROUNDUP
NATIONAL WEATHER SERVICE CHICAGO/ROMEOVILLE IL
400 PM CDT FRI APR 29 2016

NOTE: "FAIR" INDICATES FEW OR NO CLOUDS BELOW 12,000 FEET WITH NO
SIGNIFICANT WEATHER AND/OR OBSTRUCTIONS TO VISIBILITY.

* THESE STATIONS ARE NOT UNDER NWS QUALITY CONTROL. THEY ALSO MAY NOT
  REPORT WEATHER SUCH AS PRECIPITATION OR FOG.

ILZ001-002-007-009-015-016-024-292200-
NORTHWEST ILLINOIS

CITY           SKY/WX    TMP DP  RH WIND       PRES   REMARKS
MOLINE         CLOUDY    52  41  66 E7        30.09F
STERLING*      CLOUDY    48  41  76 CALM      30.12S
SAVANNA*       CLOUDY    49  39  69 NE7       30.11F
$$

ILZ003-004-008-010-011-017-018-292200-
NORTH CENTRAL ILLINOIS

CITY           SKY/WX    TMP DP  RH WIND       PRES   REMARKS
ROCKFORD       CLOUDY    49  40  71 NE6       30.14S
FREEPORT*      CLOUDY    47  40  74 NE6       30.14S
ROCHELLE*      CLOUDY    47  41  77 NE10      30.11F
DE KALB*       CLOUDY    47  41  81 NE9       30.11F
$$

ILZ005-006-012>014-019>023-292200-
NORTHEAST ILLINOIS

CITY           SKY/WX    TMP DP  RH WIND       PRES   REMARKS
CHICAGO-OHARE  CLOUDY    49  39  68 N7        30.11R
CHICAGO-MIDWAY PTSUNNY   50  39  66 NE12      30.11R
AURORA         CLOUDY    49  42  77 NE8       30.11S
LANSING*       PTSUNNY   49  40  73 NE9       30.11F
JOLIET*        CLOUDY    52  42  69 N8        30.10F
WAUKEGAN       CLOUDY    44  39  82 NE7       30.13R
DUPAGE AIRPORT CLOUDY    48  39  71 N12       30.11R
KANKAKEE*      CLOUDY    53  42  68 N3        30.10S
WHEELING       CLOUDY    47  39  74 E7        30.15R
MORRIS*        CLOUDY    51  42  71 CALM      30.09F
ROMEOVILLE*    PTSUNNY   51  40  66 N8        30.10S
NORTHERLY ISL    N/A     44  40  85 N10         N/A
NORTHERLY ISL    N/A     44  40  85 N10         N/A
$$

LMZ740>746-292200-
SOUTHERN LAKE MICHIGAN

STATION/POSITION SKY/WX   TEMP    WIND        PRES    VSBY  WAVE
                          AIR SEA DIR/SP/G                  HT/PER
                          (F)     (DEG/KT/KT) (MB)    (MI)  (FT/S)
SOUTHERN BUOY              40 40  360/ 10/ 12 1020.0S         1/ 3
HARRISON CRIB              42     360/ 11/ 11   N/A
BURNHAM HARBOR             45      20/  9/ 12   N/A
CALUMET HARBOR             43     340/  9/ 12 1019.2R
BURNS HARBOR               42     340/  7/  9 1020.7R
MICHIGAN CITY              42     310/  8/  9   N/A
ST. JOSEPH                 43 46                N/A           2/ 3
$$

ILZ025>027-034>036-040-047-049-050-058-095>099-292200-
WEST-CENTRAL ILLINOIS

CITY           SKY/WX    TMP DP  RH WIND       PRES   REMARKS
QUINCY         CLOUDY    56  48  74 NE12      30.03F
GALESBURG*     CLOUDY    53  44  73 E7        30.08F
MACOMB*        CLOUDY    53  46  78 E7        30.09F
JACKSONVILLE*  CLOUDY    56  49  76 NE9       30.04F
PITTSFIELD*    CLOUDY    57  51  80 NE8       30.04F
$$

ILZ028>032-037-038-041>044-048-051>054-059>061-292200-
CENTRAL ILLINOIS

CITY           SKY/WX    TMP DP  RH WIND       PRES   REMARKS
PONTIAC        CLOUDY    53  47  80 NE3       30.11R
BLOOMINGTON    CLOUDY    57  48  72 E6        30.08F
DECATUR        CLOUDY    61  49  64 E5        30.05F
PEORIA         CLOUDY    54  44  69 NE6       30.09R
LACON*         CLOUDY    50  43  74 CALM      30.10S
LINCOLN*       CLOUDY    58  48  71 SE3       30.06F
SPRINGFIELD    CLOUDY    60  50  69 NE10      30.05F
TAYLORVILLE    CLOUDY    61  52  72 NE7       30.04F
$$

ILZ033-039-045-046-055>057-062-063-292200-
EAST-CENTRAL ILLINOIS

CITY           SKY/WX    TMP DP  RH WIND       PRES   REMARKS
CHAMPAIGN      CLOUDY    60  48  64 MISG      30.06S
RANTOUL*       CLOUDY    59  48  67 E3        30.07F
MATTOON        CLOUDY    62  49  62 CALM      30.02F
PARIS*         CLOUDY    61  49  63 CALM      30.06S
$$

ILZ079-100>102-292200-
SOUTHWEST ILLINOIS

CITY           SKY/WX    TMP DP  RH WIND       PRES   REMARKS
ALTON          CLOUDY    63  52  67 E9        30.02F
BELLEVILLE     CLOUDY    64  55  74 E5        30.00F
CAHOKIA*       CLOUDY    64  52  64 E7        30.00F
SPARTA*        CLOUDY    64  55  73 E6        30.01S
$$

ILZ064>066-069>071-074>076-080>082-084>086-088>090-092>094-292200-
SOUTH-CENTRAL ILLINOIS

CITY           SKY/WX    TMP DP  RH WIND       PRES   REMARKS
CARBONDALE     LGT RAIN  63  53  70 SE7       29.99F
CAIRO*         CLOUDY    60  58  94 NE12      29.96F
EFFINGHAM*     CLOUDY    64  52  65 SE3       30.04S
MARION         LGT RAIN  64  55  72 SE12      30.00F
MT. VERNON     CLOUDY    64  52  63 E7        30.02F
CENTRALIA*     CLOUDY    64  54  71 E3        30.01S
SALEM*         CLOUDY    65  52  64 E3        30.01F
METROPOLIS*    LGT RAIN  60  60  99 E5        30.01F
$$

ILZ067-068-072-073-078-083-087-091-292200-
SOUTHEAST ILLINOIS

CITY           SKY/WX    TMP DP  RH WIND       PRES   REMARKS
LAWRENCEVILLE  CLOUDY    66  51  58 E3        30.03F
FLORA*         CLOUDY    65  53  63 E5        30.02F
FAIRFIELD*     CLOUDY    64  53  67 E5        30.01S
HARRISBURG*    CLOUDY    65  56  71 S9        30.02F
ROBINSON*      CLOUDY    64  53  66 CALM      30.04F
CARMI*         CLOUDY    66  52  62 E6        30.00F
$$

ABBREVIATIONS USED IN REMARKS
   TC - TEMPERATURE IN CELSIUS
  WCI - WIND CHILL INDEX
   HX - HEAT INDEX
  VSB - VISIBILITY
$$





USA.gov is the U.S. government's official web portal to all federal, state and local government web resources and services.